Home   Weather   Leimen   Past weeks

Flag for Germany Past Weather in Leimen, Baden-Württemberg, Germany — Yesterday and Last 2 Weeks

Now
77 °F

Scattered clouds.


Feels Like: 79 °F
Forecast: 63 / 73 °F
Wind: 8 mph from South

Location: Mannheim City

Current Time: Jul 22, 2017 at 1:02:41 pm

Latest Report: Jul 22, 2017 at 12:20 pm


Visibility: N/A

Pressure: 29.95 "Hg

Humidity: 57%

Dew Point: 61 °F

Location of LeimenLocation

Past Weather in Leimen — Graph

°F

Leimen Temperature Yesterday

Maximum temperature yesterday: 86 °F (at 6:50 pm)
Minimum temperature yesterday: 63 °F (at 5:50 am)
Average temperature yesterday: 77 °F

High & Low Weather Summary for the Past Weeks

 TemperatureHumidityPressure
High93 °F (Jul 19, 3:20 pm)100% (Jul 11, 5:20 am)30.27 "Hg (Jul 11, 5:20 am)
Low50 °F (Jul 13, 5:50 am)26% (Jul 8, 7:20 pm)29.77 "Hg (Jul 10, 2:20 pm)
Average75 °F58%29.99 "Hg
* Reported Jul 7 12:20 pm — Jul 22 12:20 pm, Leimen. Weather by CustomWeather, © 2017

Note: Actual official high and low records may vary slightly from our data, if they occured in-between our weather recording intervals... More about our weather records

Advertising

Leimen Weather History for the Previous 24 Hours

Scroll right to see more
 ConditionsComfort  
Time TempWeatherWind HumidityBarometerVisibility
12:20 pm
Sat, Jul 22
77 °FScattered clouds.8 mph57%29.95 "HgN/A
11:50 am75 °FScattered clouds.8 mph65%29.95 "HgN/A
11:20 am77 °FScattered clouds.5 mph65%29.95 "HgN/A
10:50 am75 °FScattered clouds.6 mph69%29.95 "HgN/A
10:20 am72 °FScattered clouds.5 mph78%29.95 "HgN/A
9:50 am72 °FScattered clouds.7 mph83%29.95 "HgN/A
9:20 am70 °FPassing clouds.5 mph94%29.95 "HgN/A
8:50 am68 °FScattered clouds.6 mph100%29.95 "HgN/A
8:20 am68 °FScattered clouds.7 mph94%29.92 "HgN/A
8:50 pm
Fri, Jul 21
82 °FPassing clouds.6 mph45%29.83 "HgN/A
8:20 pm82 °FPassing clouds.7 mph42%29.83 "HgN/A
7:50 pm84 °FSunny.3 mph40%29.83 "Hg10 mi
7:20 pm84 °FSunny.5 mph40%29.83 "Hg10 mi
6:50 pm86 °FPassing clouds.6 mph38%29.83 "HgN/A
6:20 pm84 °FPassing clouds.7 mph37%29.83 "HgN/A
5:50 pm84 °FSunny.3 mph37%29.83 "Hg10 mi
5:20 pm82 °FPassing clouds.6 mph40%29.86 "HgN/A
4:50 pm84 °FPassing clouds.8 mph35%29.86 "HgN/A
4:20 pm84 °FSunny.3 mph35%29.86 "Hg10 mi
3:20 pm82 °FPassing clouds.6 mph40%29.89 "HgN/A
2:50 pm82 °FPassing clouds.6 mph40%29.92 "HgN/A
2:20 pm81 °FSunny.5 mph39%29.92 "Hg10 mi
1:50 pm81 °FSunny.5 mph42%29.92 "Hg10 mi
1:20 pm81 °FSunny.2 mph42%29.92 "Hg10 mi
Weather by CustomWeather, © 2017

See weather overviewHow to use our weather pages